Location: Newark
(39.6172°N, 96.8533°W)
Time: 10:06:43
(UTC+00:00)

Courier 1B - Visible Passes

Search period start: 17 February 2020 00:00
Search period end: 27 February 2020 00:00
Orbit: 962 x 1209 km, 28.3° (Epoch: 17 February)

Date Brightness Start Highest point End Pass type
(mag) Time Alt. Az. Time Alt. Az. Time Alt. Az.
17 Feb 8.8 01:19:39 10° SW 01:25:39 31° S 01:29:44 17° SE visible
17 Feb 9.3 03:13:23 10° WSW 03:16:38 22° SW 03:16:38 22° SW visible
18 Feb 9.0 00:25:59 10° SW 00:32:02 30° S 00:37:47 10° ESE visible
18 Feb 8.6 02:19:31 10° WSW 02:25:24 30° S 02:26:19 29° S visible
19 Feb 8.8 01:25:40 10° WSW 01:31:47 32° S 01:36:01 17° SE visible
19 Feb 9.5 03:19:58 10° WSW 03:22:56 19° SW 03:22:56 19° SW visible
20 Feb 8.9 00:31:51 10° WSW 00:38:09 33° S 00:44:09 10° ESE visible
20 Feb 8.9 02:25:53 10° WSW 02:31:29 26° SSW 02:32:39 25° S visible
21 Feb 9.0 01:31:53 10° WSW 01:37:54 29° S 01:42:24 15° SE visible
21 Feb 9.7 03:27:06 10° WSW 03:29:18 15° SW 03:29:18 15° SW visible
22 Feb 9.0 00:37:56 10° WSW 00:44:16 32° S 00:50:16 10° SE visible
22 Feb 9.3 02:32:37 10° WSW 02:37:29 20° SSW 02:39:06 19° S visible
23 Feb 9.3 01:38:22 10° WSW 01:43:56 24° SSW 01:48:55 11° SSE visible
24 Feb 9.3 00:44:14 10° WSW 00:50:20 28° SSW 00:56:07 10° SE visible
24 Feb 9.7 02:40:08 10° SW 02:43:24 14° SSW 02:45:43 12° S visible
25 Feb 9.7 01:45:17 10° WSW 01:49:53 18° SSW 01:54:19 10° SSE visible
26 Feb 9.6 00:50:50 10° WSW 00:56:19 22° SSW 01:01:34 10° SSE visible
